Location: Knowlton
(51.2333°N, 1.2667°E)
Time: 09:07:32
(UTC+00:00)

NOSS 7 (H) - Pass Details

Date: 18 April 2021
Orbit: 367 x 1787 km, 63.3° (Epoch: 16 May)

Event Time Altitude Azimuth Distance (km) Brightness Sun altitude
Rises 20:03:59 0° 223° (SW) 2,541 8.4 -10.3°
Reaches altitude 10° 20:06:17 10° 223° (SW) 1,537 7.2 -10.6°
Maximum altitude 20:09:32 90° 133° (SE) 392 4.0 -11.1°
Drops below altitude 10° 20:12:26 10° 45° (NE) 1,373 6.8 -11.4°
Sets 20:14:23 0° 45° (NE) 2,234 7.8 -11.7°
